Overview Statistics Trail Chart Weather Telemetry Raw packets
 

This is the latest recevied weather packets stored in our database for station/object N3LF. If no packets are shown the sender has not sent any weather packets the latest 10 day(s).

<< 70 71 72 73 74 75 76 >>
Time Temp. Humidity Pressure Rain* Wind** Luminosity Snow
1788123933 36.11° C 52% 1020 hPa 0 mm - 454 W/m² -
1788123632 35.56° C 54% 1019.9 hPa 0 mm - 457 W/m² -
1788123330 35.56° C 55% 1019.9 hPa 0 mm - 453 W/m² -
1788123026 34.44° C 56% 1020.1 hPa 0 mm - 468 W/m² -
1788122725 35° C 58% 1020 hPa 0 mm - 487 W/m² -
1788122424 35° C 58% 1020.1 hPa 0 mm - 495 W/m² -
1788122121 33.89° C 59% 1020.3 hPa 0 mm - 487 W/m² -
1788121816 34.44° C 57% 1020.2 hPa 0 mm - 140 W/m² -
1788121510 34.44° C 59% 1020.3 hPa 0 mm - 95 W/m² -
1788121206 35° C 55% 1020.4 hPa 0 mm - 376 W/m² -
1788120913 35.56° C 55% 1020.5 hPa 0 mm - 535 W/m² -
1788120601 35.56° C 56% 1020.4 hPa 0 mm - 567 W/m² -
1788120300 35° C 55% 1020.5 hPa 0 mm - 576 W/m² -
1788119999 34.44° C 55% 1020.6 hPa 0 mm - 603 W/m² -
1788119695 35° C 57% 1020.7 hPa 0 mm - 176 W/m² -
1788119393 35° C 55% 1020.5 hPa 0 mm - 607 W/m² -
1788119093 35° C 55% 1020.8 hPa 0 mm - 633 W/m² -
1788118788 34.44° C 58% 1020.7 hPa 0 mm - 661 W/m² -
1788118486 35° C 58% 1020.8 hPa 0 mm - 127 W/m² -
1788118182 34.44° C 57% 1021.1 hPa 0 mm - 655 W/m² -
1788117877 35° C 55% 1020.9 hPa 0 mm - 632 W/m² -
1788117573 35.56° C 56% 1021.2 hPa 0 mm - 644 W/m² -
1788117272 35° C 54% 1021 hPa 0 mm - 648 W/m² -
1788116968 35.56° C 55% 1021.1 hPa 0 mm - 671 W/m² -
1788116663 35° C 58% 1021.2 hPa 0 mm - 685 W/m² -

* Rain latest hour (hover to see other rain measurements)
** Current wind speed in m/s (hover to see current wind gust speed)